User: anonymous   Login
Location: Bagong Pook
(14.2541°N, 120.8791°E)
Time: 06:05:19
(UTC+00:00)
Language:

Cosmos 2369 Rocket - Orbit

View from above orbital plane
View from above orbital plane
View from above satellite
View from above satellite

Ground track
Ground track

The orbit is defined by the following mean orbital elements,

1 26070U          26065.40925463 +.00000000 +00000-0 +63491-4 0 00007
2 26070  71.0012 104.7358 0017008 194.8070 165.2557 14.15825561    00
Epoch (UTC): 06 March 2026 09:49:19
Eccentricity: 0.0017008
inclination: 71.0012°
perigee height: 827 km
apogee height: 852 km
right ascension of ascending node: 104.7358°
argument of perigee: 194.8070°
revolutions per day: 14.15825561
mean anomaly at epoch: 165.2557°

The dashed part of the orbit path shows where the satellite is in the earth's shadow,  

DLR